Location: Banff
(51.1667°N, 115.5667°W)
Time: 20:25:56
(UTC+00:00)

X-37B - Pass Details

Date: 05 November 2020
Orbit: 384 x 390 km, 45.0° (Epoch: 26 November)

Event Time Altitude Azimuth Distance (km) Brightness Sun altitude
Exits shadow 12:59:29 13° 204° (SSW) 1,225 2.9 -16.4°
Maximum altitude 13:01:13 20° 164° (SSE) 977 2.8 -16.2°
Drops below altitude 10° 13:03:36 10° 115° (ESE) 1,415 4.6 -15.8°
Sets 13:06:01 0° 97° (E) 2,269 6.4 -15.4°
